This demonstration page uses our WeatherBlox Daily Observations layout. Learn more.

Left ArrowRight Arrow

34.02893, -84.19858

Hourly Observations for July 30, 2021

Temp ( °F °C ) Dew Point ( °F °C ) Humidity (%) Winds ( mph kmh ) Pressure ( in mb ) Visibility ( mi km ) Precip ( " mm )
12:53 am 00:53 Clear 78 25.6 70 21.1 76 76 W 3 6 29.96 1015 10 16 0.00 0.00
1:53 am 01:53 Clear 77 25 70 21.1 79 79 W 3 6 29.95 1014 9 14 0.00 0.00
2:53 am 02:53 Clear 77 25 70 21.1 79 79 WNW 3 6 29.94 1014 9 14 0.00 0.00
3:53 am 03:53 Clear 75 23.9 70 21.1 84 84 Calm 29.94 1014 9 14 0.00 0.00
4:53 am 04:53 Clear 76 24.4 70 21.1 82 82 W 5 7 29.95 1014 9 14 0.00 0.00
5:53 am 05:53 Clear 73 22.8 71 21.7 94 94 Calm 29.96 1015 7 11 0.00 0.00
6:53 am 06:53 Sunny 74 23.3 71 21.7 91 91 SW 3 6 29.97 1015 8 13 0.00 0.00
7:53 am 07:53 Sunny with Mist and Fog 75 23.9 72 22.2 90 90 WNW 6 9 30.00 1016 6 10 0.00 0.00
8:53 am 08:53 Sunny with Mist and Fog 77 25 73 22.8 88 88 WNW 8 13 29.98 1015 6 10 0.00 0.00
9:53 am 09:53 Hazy 79 26.1 74 23.3 85 85 W 7 11 29.96 1015 6 10 0.00 0.00
10:53 am 10:53 Hazy 82 27.8 75 23.9 79 79 W 6 9 29.95 1014 6 10 0.00 0.00
11:53 am 11:53 Sunny 85 29.4 75 23.9 72 72 W 9 15 29.95 1014 7 11 0.00 0.00
12:53 pm 12:53 Mostly Sunny 89 31.7 75 23.9 63 63 W 9 15 29.94 1014 8 13 0.00 0.00
1:53 pm 13:53 Sunny 90 32.2 75 23.9 62 62 W 7 11 29.94 1014 8 13 0.00 0.00
2:53 pm 14:53 Mostly Sunny 91 32.8 75 23.9 59 59 W 10 17 29.94 1014 8 13 0.00 0.00
3:53 pm 15:53 Mostly Cloudy 92 33.3 75 23.9 58 58 W 9 15 29.93 1014 8 13 0.00 0.00
4:53 pm 16:53 Mostly Sunny 92 33.3 76 24.4 60 60 WSW 10 17 29.92 1013 9 14 0.00 0.00
5:53 pm 17:53 Mostly Sunny 90 32.2 74 23.3 59 59 WNW 8 13 29.93 1014 8 13 0.00 0.00
6:35 pm 18:35 Partly Cloudy with Nearby Thunderstorms 84 28.9 71 21.7 65 65 NNW 13 20 29.94 1014 10 16 0.00 0.00
6:53 pm 18:53 Partly Cloudy 84 28.9 72 22.2 67 67 NW 10 17 29.94 1014 10 16 0.00 0.00
7:53 pm 19:53 Sunny 82 27.8 72 22.2 72 72 NNW 8 13 29.93 1014 10 16 0.00 0.00
8:04 pm 20:04 Sunny with Nearby Thunderstorms 82 27.8 72 22.2 72 72 NNW 9 15 29.95 1014 10 16 0.00 0.00
8:53 pm 20:53 Clear 81 27.2 72 22.2 74 74 NNW 5 7 29.95 1014 10 16 0.00 0.00
9:53 pm 21:53 Mostly Clear 80 26.7 73 22.8 79 79 WSW 3 6 29.96 1015 10 16 0.00 0.00
10:53 pm 22:53 Clear 79 26.1 73 22.8 82 82 W 3 6 29.97 1015 10 16 0.00 0.00
11:53 pm 23:53 Clear 79 26.1 72 22.2 79 79 NW 6 9 29.96 1014 10 16 0.00 0.00

Powered by AerisWeather